[[{"header":{"parameterUnit":"m.s-1","parameterCategory":2,"la1":30.2991,"la2":30.254,"lo1":-89.0895,"lo2":-89.0444,"dy":0.0017,"dx":0.0017,"nx":28,"ny":28,"refTime":"2023-08-08T21:00:00:Z","depth":"0","parameterNumber":2,"parameterNumberName":"U-component_of_CURRENTS"},"data":[0,0,0,0,0,0,0,0,0,0,0,0,0,0,0,0,0,0,0,0,0,0,0,0,0,0,0,0,0,0,0,0,0,0,0,0,0,0,0,0,0,0,0,0,0,0,0,0,0,0,0,0,0,0,0,0,0,0,0.4719,0.4719,0,0.4657,0.4656,0.4655,0.4611,0.4611,0.461,0.461,0.464,0.4641,0.4642,0,0,0,0,0,0,0,0,0,0,0,0,0,0.4719,0.472,0.4719,0.4719,0.4718,0.4657,0.4656,0.4655,0.4611,0.4611,0.461,0.461,0.464,0.4641,0.4642,0,0,0,0,0,0,0,0,0,0,0,0,0,0.4694,0.472,0.472,0.4689,0.4685,0.4657,0.4656,0.4655,0.4611,0.4611,0.461,0.461,0.4639,0.4641,0.4642,0.4662,0,0,0.4647,0.4648,0,0,0,0,0,0,0,0,0.4696,0.4694,0.4694,0.4691,0.4687,0.4642,0.4667,0.4662,0.4611,0.4639,0.461,0.461,0.465,0.465,0.4638,0.4664,0.4665,0.4647,0.4648,0.4649,0.465,0,0,0,0,0,0,0,0.4698,0.4696,0.4694,0.4693,0.4689,0.465,0.4647,0.4665,0.4649,0.4637,0.4633,0.4627,0.4648,0.4636,0.4639,0.4665,0.4647,0.4649,0.465,0.4651,0.478,0.4782,0,0,0,0,0,0,0.4711,0.4698,0.4696,0.4692,0.4691,0.4651,0.4647,0.4656,0.4647,0.4644,0.4628,0.4625,0.4634,0.4637,0.464,0.4672,0.4649,0.4651,0.4652,0.4778,0.4781,0.4783,0,0,0,0,0,0,0.4711,0.4712,0.4699,0.4693,0.4689,0.4652,0.4662,0.4655,0.4641,0.4639,0.4638,0.462,0.4633,0.4637,0.4662,0.4673,0.4651,0.4653,0.4775,0.4779,0.4782,0.4732,0,0,0,0,0,0,0.4712,0.4713,0.4725,0.4695,0.469,0.4677,0.4663,0.4655,0.4638,0.4634,0.4633,0.4634,0.4633,0.4659,0.4663,0.4675,0.4654,0.4772,0.4776,0.4781,0.473,0.4733,0.4736,0,0,0,0,0,0.4713,0.4722,0.4726,0.4726,0.4708,0.4677,0.467,0.4641,0.4638,0.4628,0.4639,0.4634,0.4693,0.4662,0.4666,0.4678,0.4769,0.4775,0.478,0.4729,0.4733,0.4736,0,0,0,0,0,0,0.4716,0.4717,0.4721,0.4729,0.4706,0.4669,0.4656,0.4645,0.4642,0.4645,0.4648,0.4651,0.47,0.4702,0.4668,0.474,0.4738,0.4745,0.4698,0.4702,0.4704,0.4702,0.4656,0,0,0,0,0,0.4729,0.4744,0.4726,0.4731,0.4721,0.4694,0.4679,0.4662,0.4654,0.465,0.4646,0.4674,0.4728,0.472,0.4769,0.4774,0.4827,0.4798,0.48,0.4802,0.481,0.4922,0.4935,0.4801,0.4801,0.4801,0,0,0.473,0.4734,0.474,0.4734,0.4714,0.4677,0.4683,0.466,0.4635,0.4659,0.4633,0.4696,0.4747,0.4775,0.4794,0.4764,0.4866,0.4809,0.4809,0.4817,0.4929,0.4942,0.4953,0.4805,0.4804,0.4804,0,0,0.4712,0.4743,0.4733,0.4713,0.469,0.4675,0.4671,0.4637,0.4632,0.4629,0.4672,0.4733,0.4754,0.4796,0.4824,0.4874,0.4909,0.4896,0.4858,0.4966,0.4977,0.4988,0.5049,0.5065,0.4856,0.4856,0.4856,0,0.4707,0.4697,0.4721,0.4687,0.4659,0.4671,0.4623,0.4623,0.4602,0.4613,0.4619,0.4732,0.477,0.4836,0.4857,0.4877,0.4933,0.4826,0.4966,0.4978,0.4989,0.505,0.5069,0.4854,0.4854,0.4855,0.4855,0,0.4666,0.4649,0.4636,0.4606,0.4585,0.4552,0.4546,0.4545,0.4555,0.4564,0.4645,0.4717,0.4778,0.4815,0.4843,0.4947,0.496,0.4984,0.4943,0.4999,0.506,0.508,0.4852,0.4852,0.4853,0.4853,0,0,0.4639,0.4616,0.4599,0.4563,0.4538,0.4504,0.4496,0.4489,0.4492,0.4535,0.456,0.4682,0.4744,0.4788,0.4852,0.4932,0.5058,0.4977,0.4983,0.5011,0.5274,0.5153,0.5163,0.5106,0.511,0.5113,0.5274,0,0.458,0.4514,0.4516,0.4428,0.4381,0.4398,0.4381,0.4392,0.443,0.4465,0.4591,0.4658,0.4724,0.477,0.487,0.5038,0.5115,0.5011,0.5241,0.5247,0.5111,0.5184,0.49,0.5009,0.5294,0.5297,0.53,0,0.45,0.4472,0.439,0.4336,0.4317,0.4277,0.4265,0.4259,0.4344,0.4384,0.4489,0.4591,0.4742,0.4792,0.5071,0.5004,0.5138,0.5253,0.5262,0.5182,0.5163,0.501,0.5036,0.4777,0.5331,0.5329,0.5327,0,0.4426,0.436,0.4298,0.4273,0.4232,0.4207,0.4197,0.4237,0.4245,0.435,0.4386,0.4574,0.4673,0.4895,0.5108,0.5116,0.54,0.5435,0.5446,0.5437,0.5258,0.5226,0.5037,0.5635,0.5634,0.5634,0.5633,0,0.4335,0.427,0.426,0.4212,0.4147,0.4143,0.4104,0.4127,0.4184,0.4206,0.4349,0.4416,0.4714,0.4893,0.5105,0.5314,0.5398,0.546,0.5484,0.5229,0.5194,0.5012,0.4972,0.564,0.5638,0.5637,0.5636,0,0.4233,0.4229,0.4148,0.4113,0.4101,0.4052,0.4031,0.4026,0.4079,0.4121,0.4157,0.4334,0.4556,0.4805,0.5148,0.5275,0.5335,0.5548,0.5196,0.5174,0.494,0.4912,0.4786,0.4688,0.5615,0.5613,0.5611,0,0.4172,0.4128,0.4076,0.4048,0.4025,0.3976,0.3957,0.3975,0.3979,0.4067,0.4093,0.4279,0.4383,0.4775,0.5048,0.5342,0.5217,0.5225,0.5199,0.488,0.487,0.4756,0.4676,0.4945,0.4938,0.4933,0.4928,0,0.407,0.4062,0.402,0.3967,0.3927,0.3867,0.3842,0.3822,0.3862,0.3883,0.3943,0.4021,0.4342,0.4467,0.4784,0.4979,0.4893,0.5119,0.4895,0.4416,0.4179,0.4106,0.486,0.4878,0.4883,0.4887,0.4889,0.4891,0.4013,0.3971,0.3941,0.3874,0.3832,0.375,0.3647,0.3649,0.3606,0.3568,0.3743,0.3753,0.3905,0.4317,0.4432,0.4401,0.4625,0.4333,0.4357,0.4292,0.4073,0.4687,0.4661,0.4664,0.4667,0.467,0.4672,0,0.393,0.39,0.3854,0.3745,0.3646,0.3651,0.3558,0.3425,0.3316,0.3364,0.3361,0.336,0.3398,0.3543,0.3662,0.3604,0.3566,0.3532,0.3268,0.3267,0.3873,0.3707,0.3337,0.3337,0.3337,0.3338,0.3338,0.3338,0.3891,0.3807,0.3774,0.3585,0.3502,0.3275,0.3179,0.3024,0.2979,0.2816,0.2756,0.2809,0.2927,0.2934,0.2814,0.2822,0.2649,0.258,0.2691,0.3018,0.3091,0.316,0.2983,0.2468,0.2467,0.1881,0.1876,0.1872]},{"header":{"parameterUnit":"m.s-1","parameterCategory":2,"la1":30.2991,"la2":30.254,"lo1":-89.0895,"lo2":-89.0444,"dy":0.0017,"dx":0.0017,"nx":28,"ny":28,"refTime":"2023-08-08T21:00:00:Z","depth":"0","parameterNumber":3,"parameterNumberName":"V-component_of_CURRENTS"},"data":[0,0,0,0,0,0,0,0,0,0,0,0,0,0,0,0,0,0,0,0,0,0,0,0,0,0,0,0,0,0,0,0,0,0,0,0,0,0,0,0,0,0,0,0,0,0,0,0,0,0,0,0,0,0,0,0,0,0,0.1411,0.1412,0,0.1557,0.1559,0.1561,0.1587,0.1586,0.1584,0.1583,0.1598,0.16,0.1601,0,0,0,0,0,0,0,0,0,0,0,0,0,0.1156,0.116,0.1411,0.1412,0.1414,0.1557,0.1559,0.1562,0.1587,0.1586,0.1584,0.1582,0.1597,0.1599,0.1602,0,0,0,0,0,0,0,0,0,0,0,0,0,0.1284,0.1162,0.141,0.1442,0.1446,0.1557,0.156,0.1562,0.1588,0.1586,0.1583,0.1581,0.1597,0.1599,0.1602,0.1664,0,0,0.161,0.1611,0,0,0,0,0,0,0,0,0.1276,0.1294,0.1435,0.144,0.1444,0.1549,0.1475,0.1589,0.1588,0.1537,0.1583,0.158,0.1569,0.1574,0.1613,0.1665,0.1665,0.161,0.1612,0.1613,0.1614,0,0,0,0,0,0,0,0.1268,0.1287,0.1472,0.1437,0.1443,0.1449,0.1465,0.1498,0.1564,0.1541,0.1543,0.1555,0.157,0.161,0.1613,0.1666,0.161,0.1613,0.1614,0.1616,0.1714,0.1715,0,0,0,0,0,0,0.1247,0.128,0.1467,0.1476,0.1349,0.1455,0.1473,0.152,0.1567,0.1572,0.1557,0.1556,0.1607,0.161,0.1613,0.1682,0.1613,0.1616,0.1617,0.1713,0.1714,0.1716,0,0,0,0,0,0,0.1241,0.1264,0.1461,0.1376,0.1401,0.1461,0.1514,0.1524,0.1562,0.1579,0.1582,0.1582,0.1605,0.1609,0.1662,0.1682,0.1617,0.1619,0.1712,0.1714,0.1715,0.1822,0,0,0,0,0,0,0.1234,0.1262,0.1291,0.1376,0.1405,0.1533,0.1516,0.1529,0.1571,0.1571,0.1602,0.1602,0.1604,0.1658,0.1664,0.1684,0.1622,0.1711,0.1713,0.1715,0.1818,0.1827,0.1836,0,0,0,0,0,0.1225,0.127,0.1293,0.1314,0.1444,0.1534,0.1551,0.1586,0.1574,0.1609,0.1633,0.1601,0.1672,0.1663,0.167,0.1691,0.171,0.1712,0.1714,0.1814,0.1825,0.1836,0,0,0,0,0,0,0.1176,0.128,0.1305,0.1381,0.1454,0.1537,0.1566,0.1594,0.1647,0.1637,0.1644,0.1649,0.1699,0.168,0.167,0.1719,0.1673,0.1677,0.1746,0.1757,0.1766,0.1742,0.1624,0,0,0,0,0,0.1181,0.1244,0.1337,0.1399,0.143,0.1501,0.154,0.1573,0.1627,0.1648,0.1675,0.1687,0.1718,0.1725,0.1752,0.1795,0.1751,0.1799,0.1808,0.1816,0.1799,0.1768,0.1773,0.1723,0.1723,0.1723,0,0,0.118,0.1243,0.128,0.1392,0.1445,0.1509,0.152,0.1587,0.1641,0.164,0.1713,0.1736,0.174,0.1794,0.1809,0.1777,0.1812,0.1819,0.1827,0.1804,0.1771,0.1775,0.178,0.1724,0.1724,0.1724,0,0,0.12,0.1265,0.1318,0.138,0.1464,0.1517,0.1535,0.163,0.1669,0.1759,0.1758,0.1792,0.1852,0.1857,0.1864,0.1933,0.1873,0.1931,0.1952,0.1924,0.1928,0.193,0.1902,0.1901,0.1922,0.1922,0.1922,0,0.1189,0.1282,0.1345,0.1405,0.1453,0.1517,0.1578,0.1641,0.1743,0.1777,0.1783,0.1868,0.1877,0.1918,0.1944,0.1954,0.1925,0.1919,0.1936,0.1937,0.1938,0.1908,0.1906,0.1928,0.1927,0.1927,0.1926,0,0.125,0.132,0.1352,0.1453,0.1513,0.158,0.1664,0.1728,0.1779,0.1837,0.1912,0.1947,0.1979,0.1993,0.1999,0.2009,0.1985,0.1966,0.1911,0.195,0.1916,0.1912,0.1936,0.1934,0.1932,0.1931,0,0,0.1249,0.1372,0.1384,0.1434,0.1545,0.1604,0.1688,0.179,0.184,0.1924,0.199,0.2046,0.2051,0.2056,0.2059,0.2036,0.2038,0.2005,0.2001,0.198,0.1975,0.1899,0.1887,0.2025,0.2024,0.2024,0.1958,0,0.1282,0.1382,0.1443,0.1542,0.1605,0.1679,0.1749,0.1838,0.192,0.2001,0.203,0.2095,0.2078,0.2103,0.2081,0.2065,0.2027,0.2057,0.1935,0.1931,0.1862,0.1879,0.1862,0.1796,0.1953,0.1952,0.1952,0,0.1333,0.1395,0.1484,0.1594,0.1625,0.1682,0.1798,0.1875,0.1982,0.2044,0.2097,0.2136,0.2152,0.2123,0.207,0.2093,0.2029,0.1995,0.1991,0.187,0.1845,0.1776,0.1781,0.1589,0.1944,0.1944,0.1945,0,0.131,0.1432,0.1498,0.1539,0.1662,0.1704,0.1767,0.1878,0.1951,0.2064,0.2128,0.2154,0.218,0.2115,0.2064,0.2067,0.1987,0.1978,0.1838,0.1833,0.1764,0.1752,0.1563,0.1895,0.1895,0.1895,0.1896,0,0.1335,0.1389,0.1487,0.1524,0.1599,0.1684,0.1772,0.1848,0.1959,0.2045,0.2129,0.2196,0.2176,0.2154,0.2075,0.1946,0.1985,0.1831,0.1804,0.1802,0.1796,0.1578,0.1542,0.1893,0.1893,0.1894,0.1894,0,0.1302,0.1369,0.1448,0.1556,0.1591,0.1637,0.1764,0.184,0.1939,0.2056,0.2094,0.2217,0.2193,0.2142,0.205,0.1954,0.1761,0.1773,0.1774,0.1747,0.1426,0.14,0.124,0.1226,0.1611,0.1608,0.1606,0,0.13,0.1336,0.1443,0.1489,0.1535,0.1621,0.1693,0.1812,0.1906,0.2067,0.2129,0.2167,0.2209,0.2063,0.1915,0.1746,0.1658,0.1595,0.1577,0.1384,0.1336,0.1338,0.1341,0.1545,0.1543,0.1541,0.154,0,0.1296,0.1322,0.1382,0.1458,0.1533,0.1627,0.1737,0.1801,0.1953,0.2053,0.2163,0.2201,0.2108,0.1959,0.1748,0.1648,0.1505,0.1545,0.135,0.1259,0.1247,0.123,0.1614,0.1522,0.1524,0.1525,0.1526,0.1527,0.1288,0.1306,0.1377,0.1447,0.1529,0.1625,0.1679,0.1814,0.1933,0.2065,0.2129,0.2181,0.1973,0.1705,0.1546,0.1215,0.1328,0.1106,0.109,0.1108,0.108,0.1411,0.1281,0.1282,0.1282,0.1282,0.1282,0,0.1279,0.1306,0.1373,0.1453,0.1517,0.1575,0.171,0.1757,0.1867,0.2015,0.208,0.1976,0.1695,0.1437,0.1009,0.0782,0.0803,0.0678,0.0674,0.0705,0.0976,0.0952,0.0737,0.0737,0.0737,0.0738,0.0738,0.0738,0.1279,0.1308,0.1335,0.1424,0.1478,0.1532,0.1589,0.1661,0.1765,0.1837,0.1877,0.1923,0.1735,0.093,0.0429,0.0365,0.0267,0.0261,0.0227,0.0367,0.0406,0.0442,0.0402,0.0076,0.0076,-0.0013,-0.0014,-0.0016]}],[{"header":{"parameterUnit":"m.s-1","parameterCategory":2,"la1":30.2991,"la2":30.254,"lo1":-89.0895,"lo2":-89.0444,"dy":0.0017,"dx":0.0017,"nx":28,"ny":28,"refTime":"2023-08-08T21:00:00:Z","depth":"2","parameterNumber":2,"parameterNumberName":"U-component_of_CURRENTS"},"data":[0,0,0,0,0,0,0,0,0,0,0,0,0,0,0,0,0,0,0,0,0,0,0,0,0,0,0,0,0,0,0,0,0,0,0,0,0,0,0,0,0,0,0,0,0,0,0,0,0,0,0,0,0,0,0,0,0,0,0.3038,0.3038,0,0.3103,0.3105,0.3106,0.3368,0.3373,0.3378,0.3384,0.3613,0.3614,0.3615,0,0,0,0,0,0,0,0,0,0,0,0,0,0.3168,0.3165,0.3038,0.3038,0.3038,0.3103,0.3105,0.3106,0.3367,0.3373,0.338,0.3386,0.3613,0.3614,0.3615,0,0,0,0,0,0,0,0,0,0,0,0,0,0.3167,0.3164,0.3038,0.3171,0.3183,0.3103,0.3105,0.3107,0.3365,0.3373,0.3382,0.3389,0.3612,0.3614,0.3615,0.3464,0,0,0.362,0.3621,0,0,0,0,0,0,0,0,0.3166,0.3163,0.3151,0.3161,0.3175,0.3229,0.3235,0.3232,0.3363,0.3303,0.3384,0.3393,0.3489,0.3501,0.3504,0.3474,0.3484,0.362,0.3621,0.3622,0.3623,0,0,0,0,0,0,0,0.3166,0.3161,0.3071,0.315,0.3165,0.3237,0.3246,0.3235,0.3359,0.3309,0.3327,0.332,0.3499,0.3501,0.3511,0.3488,0.362,0.3622,0.3623,0.3624,0.3814,0.3818,0,0,0,0,0,0,0.3132,0.316,0.3069,0.3072,0.3182,0.3227,0.3238,0.3209,0.3356,0.3382,0.3313,0.3332,0.3494,0.3509,0.352,0.3639,0.3622,0.3624,0.3625,0.381,0.3815,0.3819,0,0,0,0,0,0,0.3134,0.3122,0.3066,0.3115,0.3112,0.3215,0.3182,0.3206,0.3326,0.3355,0.3389,0.3421,0.3501,0.3518,0.3637,0.364,0.3624,0.3626,0.3805,0.3811,0.3817,0.3691,0,0,0,0,0,0,0.3137,0.3122,0.3121,0.311,0.3108,0.3088,0.3174,0.3201,0.3298,0.3328,0.3455,0.3479,0.3509,0.3634,0.3638,0.3642,0.3627,0.38,0.3808,0.3815,0.369,0.3692,0.3694,0,0,0,0,0,0.3141,0.3092,0.3119,0.3111,0.3091,0.3087,0.3096,0.3201,0.3297,0.3343,0.3464,0.3481,0.3688,0.3637,0.3641,0.3645,0.3796,0.3805,0.3814,0.369,0.3692,0.3694,0,0,0,0,0,0,0.317,0.3112,0.3144,0.309,0.3122,0.3132,0.3159,0.3238,0.3359,0.3418,0.3495,0.3523,0.3654,0.3677,0.362,0.3744,0.3757,0.3768,0.3662,0.3664,0.3666,0.3607,0.3629,0,0,0,0,0,0.3156,0.3109,0.3097,0.3072,0.3075,0.3136,0.3161,0.3235,0.331,0.3379,0.3478,0.3588,0.3663,0.3695,0.3783,0.3785,0.3752,0.3817,0.3819,0.3819,0.3788,0.3727,0.3715,0.3849,0.3849,0.3849,0,0,0.3156,0.3124,0.3102,0.3077,0.3101,0.3085,0.3178,0.3225,0.3243,0.337,0.348,0.3612,0.3689,0.375,0.3804,0.3774,0.3775,0.3831,0.3828,0.3797,0.3735,0.372,0.3706,0.3855,0.3854,0.3853,0,0,0.311,0.3109,0.3054,0.307,0.3098,0.3107,0.3142,0.3209,0.3285,0.3383,0.3499,0.3637,0.3753,0.3782,0.3809,0.3865,0.3823,0.3931,0.3822,0.3763,0.3747,0.3733,0.3674,0.3655,0.3881,0.3881,0.3881,0,0.3146,0.3036,0.3054,0.3024,0.3022,0.3121,0.3094,0.3136,0.3264,0.3302,0.3442,0.3643,0.3751,0.373,0.38,0.3854,0.3815,0.3779,0.3748,0.3734,0.3721,0.3664,0.3645,0.3876,0.3877,0.3877,0.3878,0,0.3006,0.2993,0.2968,0.2936,0.2957,0.2947,0.2987,0.3071,0.3204,0.3257,0.3387,0.3531,0.3657,0.3711,0.3779,0.374,0.3742,0.3778,0.3699,0.3697,0.3642,0.3623,0.3869,0.3871,0.3872,0.3874,0,0,0.2899,0.2873,0.2875,0.2865,0.2907,0.2892,0.293,0.2944,0.2977,0.3143,0.3177,0.3352,0.3486,0.3531,0.3618,0.3558,0.349,0.3626,0.3625,0.3491,0.3337,0.3161,0.3125,0.3491,0.3488,0.3485,0.3329,0,0.2798,0.2703,0.2723,0.2684,0.2638,0.2752,0.2772,0.2837,0.2943,0.3018,0.3124,0.3246,0.3378,0.3487,0.3444,0.3536,0.3439,0.3528,0.3428,0.3425,0.3203,0.3096,0.2943,0.2775,0.3311,0.3308,0.3306,0,0.2607,0.2582,0.2508,0.2545,0.254,0.257,0.2621,0.267,0.2775,0.2885,0.2984,0.3106,0.3148,0.3269,0.3248,0.3299,0.3309,0.3314,0.3308,0.3162,0.3212,0.2876,0.2721,0.3276,0.3278,0.328,0.3282,0,0.242,0.2414,0.2345,0.2353,0.2419,0.2468,0.2548,0.2661,0.269,0.2833,0.2893,0.2949,0.3053,0.3035,0.317,0.3202,0.3095,0.3142,0.2934,0.2924,0.2781,0.2761,0.302,0.302,0.3021,0.3021,0.3021,0,0.2224,0.2187,0.2282,0.2251,0.2259,0.2379,0.2412,0.2538,0.2647,0.2669,0.2846,0.286,0.3003,0.3002,0.3063,0.2948,0.3018,0.2857,0.2839,0.2741,0.272,0.3169,0.3188,0.3015,0.3016,0.3018,0.3019,0,0.2045,0.2062,0.2049,0.2149,0.2174,0.224,0.2368,0.2372,0.2544,0.2582,0.2638,0.278,0.2824,0.2875,0.2886,0.2807,0.2736,0.2667,0.2547,0.2511,0.2615,0.2632,0.2346,0.2338,0.2331,0.2325,0.232,0,0.1926,0.189,0.2001,0.2012,0.2085,0.2165,0.2187,0.2345,0.2359,0.2518,0.2504,0.2586,0.2608,0.2529,0.242,0.2324,0.2562,0.2115,0.2114,0.2517,0.2531,0.2559,0.2584,0.1905,0.1897,0.1891,0.1886,0,0.1773,0.1857,0.1874,0.1898,0.1934,0.1973,0.2051,0.2024,0.2197,0.2239,0.234,0.2377,0.2272,0.2127,0.1978,0.1914,0.2118,0.1966,0.2396,0.209,0.2084,0.2105,0.2147,0.1828,0.1834,0.1838,0.1841,0.1843,0.173,0.1731,0.175,0.1799,0.1838,0.1862,0.1906,0.1909,0.1952,0.2052,0.209,0.2081,0.188,0.1551,0.1512,0.1516,0.1574,0.1575,0.1603,0.1636,0.1601,0.1583,0.1227,0.1229,0.1231,0.1232,0.1234,0,0.1647,0.1638,0.1615,0.1685,0.174,0.1829,0.1841,0.1845,0.1904,0.1847,0.1907,0.1488,0.1318,0.1313,0.1156,0.1019,0.1092,0.1094,0.1251,0.13,0.1346,0.131,0.0851,0.0852,0.0852,0.0852,0,0,0.1567,0.1524,0.1504,0.1578,0.1703,0.1781,0.1857,0.1831,0.1761,0.1601,0.1512,0.1311,0.1191,0.0957,0.0873,0.0949,0.1164,0.0921,0.1203,0.1439,0.1488,0.1557,0.1543,0,0,0,0,0]},{"header":{"parameterUnit":"m.s-1","parameterCategory":2,"la1":30.2991,"la2":30.254,"lo1":-89.0895,"lo2":-89.0444,"dy":0.0017,"dx":0.0017,"nx":28,"ny":28,"refTime":"2023-08-08T21:00:00:Z","depth":"2","parameterNumber":3,"parameterNumberName":"V-component_of_CURRENTS"},"data":[0,0,0,0,0,0,0,0,0,0,0,0,0,0,0,0,0,0,0,0,0,0,0,0,0,0,0,0,0,0,0,0,0,0,0,0,0,0,0,0,0,0,0,0,0,0,0,0,0,0,0,0,0,0,0,0,0,0,-0.007,-0.0068,0,0.0098,0.0101,0.0103,0.0358,0.0362,0.0367,0.037,0.0508,0.0508,0.0508,0,0,0,0,0,0,0,0,0,0,0,0,0,-0.0074,-0.0075,-0.007,-0.0068,-0.0067,0.0098,0.0101,0.0104,0.0358,0.0363,0.0368,0.0372,0.0508,0.0508,0.0508,0,0,0,0,0,0,0,0,0,0,0,0,0,-0.0001,-0.0076,-0.007,0.0076,0.0091,0.0098,0.0101,0.0104,0.0357,0.0363,0.0369,0.0375,0.0508,0.0508,0.0508,0.0385,0,0,0.0507,0.0507,0,0,0,0,0,0,0,0,-0.0006,-0.0001,0.0053,0.0066,0.0082,0.0209,0.015,0.0195,0.0355,0.0261,0.037,0.0378,0.0397,0.0407,0.0432,0.0391,0.0397,0.0507,0.0507,0.0507,0.0507,0,0,0,0,0,0,0,-0.0011,-0.0006,0.0002,0.0054,0.0072,0.0167,0.0183,0.0161,0.0296,0.027,0.0287,0.0296,0.0407,0.0432,0.0437,0.0399,0.0507,0.0507,0.0507,0.0507,0.0616,0.0619,0,0,0,0,0,0,-0.0055,-0.0013,-0.0003,0.0007,0.0047,0.0161,0.018,0.0166,0.0298,0.0322,0.0291,0.0307,0.0429,0.0437,0.0443,0.0538,0.0507,0.0507,0.0507,0.0613,0.0617,0.062,0,0,0,0,0,0,-0.0056,-0.0057,-0.001,-0.0,0.0012,0.0153,0.0137,0.0166,0.0262,0.0313,0.034,0.0364,0.0435,0.0443,0.0558,0.0537,0.0507,0.0507,0.061,0.0614,0.0618,0.0578,0,0,0,0,0,0,-0.0058,-0.0059,-0.0066,-0.0005,0.0009,0.0071,0.0131,0.0165,0.0251,0.0277,0.0381,0.0398,0.044,0.0558,0.0557,0.0536,0.0506,0.0606,0.0612,0.0617,0.0575,0.058,0.0585,0,0,0,0,0,-0.0059,-0.0075,-0.0068,-0.0066,-0.0013,0.0073,0.0093,0.0217,0.0248,0.0318,0.042,0.0398,0.0593,0.0561,0.0559,0.0537,0.0603,0.061,0.0617,0.0573,0.0579,0.0585,0,0,0,0,0,0,-0.0055,-0.0051,-0.004,-0.0049,0.0032,0.0117,0.0163,0.0223,0.0347,0.0373,0.0433,0.0459,0.0559,0.0563,0.0526,0.0599,0.0591,0.0597,0.0559,0.0564,0.0569,0.0564,0.0506,0,0,0,0,0,-0.0082,-0.0102,-0.0049,-0.0049,-0.0023,0.0061,0.0108,0.019,0.0288,0.0352,0.0439,0.0511,0.0562,0.0586,0.0657,0.0656,0.0596,0.0651,0.0655,0.0658,0.0662,0.0509,0.0496,0.0642,0.0642,0.0642,0,0,-0.009,-0.0086,-0.0097,-0.0051,-0.0,0.0067,0.0112,0.0194,0.0261,0.033,0.0473,0.0542,0.0584,0.0651,0.0684,0.0654,0.0603,0.0667,0.0668,0.0671,0.0514,0.0498,0.0484,0.0647,0.0646,0.0645,0,0,-0.0083,-0.0107,-0.01,-0.0037,0.0041,0.0086,0.0115,0.0233,0.0306,0.0427,0.0495,0.0571,0.0669,0.069,0.0699,0.0752,0.0656,0.0772,0.0743,0.0593,0.0576,0.0561,0.0509,0.0489,0.0739,0.0738,0.0738,0,-0.0074,-0.0071,-0.0068,-0.0012,0.004,0.0096,0.0168,0.0218,0.0382,0.0422,0.0497,0.0631,0.0676,0.067,0.0735,0.0748,0.0683,0.07,0.0586,0.0569,0.0554,0.0503,0.0481,0.0737,0.0737,0.0738,0.0738,0,-0.0047,-0.0016,0.0001,0.0063,0.0124,0.0192,0.0253,0.0341,0.0418,0.0472,0.0558,0.0627,0.0702,0.0708,0.0748,0.0663,0.0665,0.062,0.0541,0.0534,0.0486,0.0463,0.0736,0.0736,0.0736,0.0737,0,0,-0.0079,0.0002,0.0015,0.0074,0.0173,0.023,0.0304,0.0385,0.0434,0.0536,0.0591,0.0658,0.0679,0.0695,0.0699,0.058,0.045,0.0562,0.0554,0.046,0.017,0.0257,0.0241,0.0346,0.0341,0.0338,0.0192,0,-0.0035,0.0058,0.0089,0.0207,0.0271,0.0338,0.0409,0.048,0.0546,0.0621,0.0586,0.0659,0.0656,0.0698,0.057,0.0528,0.0384,0.0498,0.0238,0.0233,0.0263,0.0214,0.0215,0.0091,0.017,0.0166,0.0163,0,0.0,0.006,0.0163,0.029,0.0321,0.039,0.05,0.0575,0.0625,0.0686,0.0682,0.0689,0.0617,0.0589,0.0372,0.0442,0.0306,0.0218,0.0207,0.0281,0.0275,0.0109,0.0047,0.0125,0.0128,0.0131,0.0134,0,-0.0009,0.012,0.0193,0.0242,0.0381,0.0436,0.0508,0.0593,0.065,0.0702,0.0757,0.066,0.0656,0.0435,0.0331,0.032,0.0074,0.0017,-0.0059,-0.0051,-0.0098,-0.0086,-0.0239,-0.0238,-0.0238,-0.0238,-0.0237,0,0.0031,0.0098,0.0192,0.0245,0.0349,0.044,0.0536,0.0624,0.0699,0.0767,0.0761,0.0786,0.0603,0.0479,0.0308,0.0112,0.0031,-0.0063,-0.0109,-0.0095,-0.0081,-0.0088,-0.0069,-0.0243,-0.0242,-0.0241,-0.024,0,0.003,0.0084,0.0189,0.0316,0.0352,0.0431,0.0557,0.0622,0.0714,0.08,0.0818,0.0845,0.0732,0.0545,0.0262,0.0127,-0.0095,-0.0176,-0.0069,-0.0099,-0.0119,-0.0099,-0.0297,-0.0296,-0.0295,-0.0294,-0.0293,0,0.004,0.0091,0.0221,0.0266,0.0323,0.0426,0.0499,0.0623,0.0702,0.0843,0.0886,0.084,0.0836,0.0532,0.0282,-0.0012,-0.008,-0.0194,-0.0233,-0.0112,-0.0138,-0.0119,-0.0101,-0.03,-0.0299,-0.0299,-0.0298,0,0.0077,0.0112,0.0191,0.0275,0.0349,0.0458,0.0574,0.0641,0.0804,0.0897,0.1019,0.1019,0.0805,0.0557,0.0236,0.0049,-0.0127,-0.0189,-0.0187,-0.0243,-0.0117,-0.0139,-0.0123,-0.0294,-0.0294,-0.0294,-0.0295,-0.0295,0.0096,0.0146,0.0223,0.0305,0.0387,0.0514,0.0626,0.0747,0.0908,0.1076,0.1073,0.1054,0.0688,0.0281,0.008,-0.0062,-0.0103,-0.0241,-0.0244,-0.0248,-0.018,-0.0056,-0.0204,-0.0204,-0.0203,-0.0203,-0.0203,0,0.0129,0.0167,0.0241,0.0364,0.0451,0.0516,0.0695,0.0808,0.1012,0.1074,0.1159,0.0768,0.0528,0.0238,0.002,-0.0163,-0.0177,-0.0196,-0.0233,-0.0238,-0.0242,-0.0174,-0.0197,-0.0197,-0.0197,-0.0197,0,0,0.015,0.0206,0.0244,0.0392,0.0489,0.0664,0.0794,0.0943,0.1013,0.1065,0.101,0.0823,0.0445,0.0195,-0.0028,-0.0061,-0.0082,-0.0052,-0.005,-0.0071,-0.0071,-0.0272,-0.0172,0,0,0,0,0]}],[{"header":{"parameterUnit":"m.s-1","parameterCategory":2,"la1":30.2991,"la2":30.254,"lo1":-89.0895,"lo2":-89.0444,"dy":0.0017,"dx":0.0017,"nx":28,"ny":28,"refTime":"2023-08-08T21:00:00:Z","depth":"4","parameterNumber":2,"parameterNumberName":"U-component_of_CURRENTS"},"data":[0,0,0,0,0,0,0,0,0,0,0,0,0,0,0,0,0,0,0,0,0,0,0,0,0,0,0,0,0,0,0,0,0,0,0,0,0,0,0,0,0,0,0,0,0,0,0,0,0,0,0,0,0,0,0,0,0,0,0.0048,0.0049,0,0.0169,0.017,0.0172,0.0233,0.0233,0.0234,0.0234,0.0211,0.021,0.0209,0,0,0,0,0,0,0,0,0,0,0,0,0,-0.0044,-0.0043,0.0048,0.0049,0.0051,0.0169,0.017,0.0172,0.0233,0.0233,0.0234,0.0234,0.0211,0.021,0.0209,0,0,0,0,0,0,0,0,0,0,0,0,0,0.0026,-0.0043,0.0047,0.0097,0.0103,0.0169,0.017,0.0172,0.0233,0.0233,0.0234,0.0234,0.0211,0.021,0.0209,0.0195,0,0,0.0205,0.0204,0,0,0,0,0,0,0,0,0.0022,0.0029,0.0088,0.0094,0.01,0.0188,0.013,0.0173,0.0233,0.0182,0.0234,0.0234,0.019,0.0191,0.0213,0.0194,0.0193,0.0205,0.0204,0.0204,0.0203,0,0,0,0,0,0,0,0.0017,0.0025,0.0094,0.009,0.0097,0.0144,0.0153,0.0139,0.0179,0.0186,0.0191,0.0208,0.0193,0.0214,0.0212,0.0192,0.0205,0.0204,0.0203,0.0203,0.0159,0.0159,0,0,0,0,0,0,0.0001,0.002,0.009,0.0098,0.0063,0.0145,0.0155,0.0158,0.0182,0.0188,0.0207,0.021,0.0216,0.0213,0.0211,0.0228,0.0204,0.0202,0.0202,0.016,0.0159,0.0159,0,0,0,0,0,0,-0.0002,0.0005,0.0085,0.0064,0.0078,0.0145,0.0149,0.016,0.0219,0.02,0.0203,0.0258,0.0216,0.0213,0.0226,0.0226,0.0202,0.0201,0.016,0.016,0.0159,0.024,0,0,0,0,0,0,-0.0005,0.0003,0.0019,0.0062,0.0078,0.0149,0.0149,0.0162,0.0227,0.0233,0.0243,0.024,0.0216,0.0228,0.0225,0.0224,0.02,0.0161,0.016,0.0159,0.0238,0.0242,0.0246,0,0,0,0,0,-0.0009,0.0005,0.0018,0.0028,0.009,0.0151,0.0165,0.0213,0.0229,0.0265,0.0265,0.0242,0.0219,0.0228,0.0224,0.0222,0.0161,0.016,0.0159,0.0236,0.0241,0.0246,0,0,0,0,0,0,-0.0017,0.0014,0.003,0.0055,0.0112,0.0163,0.0207,0.0236,0.0271,0.0278,0.0256,0.0253,0.0258,0.0228,0.0239,0.0202,0.0177,0.0176,0.0237,0.0242,0.0246,0.0276,0.0199,0,0,0,0,0,-0.0016,0.0001,0.0048,0.0077,0.0107,0.0165,0.0203,0.0235,0.0265,0.0286,0.0296,0.0277,0.0245,0.024,0.022,0.0214,0.0175,0.0201,0.0205,0.0209,0.0227,0.0137,0.0135,0.0156,0.0156,0.0156,0,0,-0.0009,0.0013,0.0025,0.0078,0.0127,0.0181,0.019,0.0259,0.0299,0.027,0.0334,0.0307,0.0249,0.0242,0.0238,0.0222,0.0188,0.0207,0.0212,0.0228,0.0136,0.0134,0.0132,0.0155,0.0155,0.0155,0,0,0.0019,0.0036,0.0067,0.0115,0.0189,0.0219,0.0247,0.0319,0.0348,0.0398,0.0364,0.0347,0.0342,0.0289,0.0255,0.0267,0.0217,0.0251,0.0296,0.0208,0.0206,0.0203,0.0184,0.0179,0.0247,0.0247,0.0247,0,0.0036,0.0073,0.0093,0.0146,0.0194,0.024,0.0301,0.0333,0.0401,0.0404,0.0429,0.0384,0.0357,0.0288,0.0304,0.0278,0.0244,0.0287,0.0215,0.0211,0.0208,0.0188,0.0181,0.0251,0.0251,0.025,0.025,0,0.0086,0.0134,0.0165,0.0233,0.0281,0.0347,0.0388,0.0432,0.0472,0.0486,0.0475,0.0441,0.041,0.0381,0.0362,0.0303,0.0296,0.0237,0.021,0.0211,0.019,0.0182,0.0256,0.0255,0.0254,0.0253,0,0,0.0086,0.0181,0.0199,0.0249,0.0336,0.038,0.0429,0.0471,0.0483,0.0526,0.0524,0.0488,0.0478,0.0439,0.0386,0.0322,0.0291,0.0292,0.0285,0.0289,0.0149,0.0179,0.0173,0.0215,0.0213,0.0211,0.0159,0,0.0137,0.0239,0.0268,0.0374,0.0435,0.0472,0.0505,0.0534,0.0552,0.0558,0.05,0.049,0.0489,0.0477,0.0417,0.0308,0.0269,0.0315,0.0135,0.0132,0.0168,0.0163,0.0206,0.0153,0.0151,0.0149,0.0148,0,0.0183,0.0245,0.0356,0.0437,0.0465,0.0527,0.0571,0.0607,0.0587,0.0594,0.0569,0.0535,0.0476,0.0465,0.0322,0.0354,0.0288,0.0207,0.02,0.0196,0.0144,0.0139,0.0133,0.0134,0.0135,0.0136,0.0137,0,0.0184,0.0302,0.0392,0.0433,0.0526,0.057,0.0617,0.0626,0.0627,0.0625,0.0611,0.0544,0.0508,0.0404,0.0289,0.0309,0.0105,0.0093,0.0061,0.0064,0.0019,0.0021,-0.0004,-0.0004,-0.0004,-0.0004,-0.0004,0,0.0219,0.0291,0.041,0.0465,0.0544,0.0603,0.0653,0.0679,0.0671,0.0624,0.0643,0.0546,0.0488,0.0364,0.0276,0.0149,0.0096,0.0087,0.0042,0.0059,0.0066,0.0015,0.0018,-0.0006,-0.0006,-0.0005,-0.0005,0,0.0214,0.0296,0.04,0.052,0.0557,0.0622,0.0691,0.0685,0.0711,0.0647,0.0649,0.0555,0.0426,0.0348,0.0158,0.0134,-0.0006,-0.0047,0.0017,-0.0027,0.0038,0.0045,-0.003,-0.003,-0.003,-0.0029,-0.0029,0,0.022,0.0282,0.0436,0.0488,0.0558,0.0646,0.0666,0.071,0.0664,0.0583,0.05,0.0425,0.0353,0.0137,0.0055,-0.0037,-0.0061,-0.0071,-0.0009,0.0067,0.003,0.0037,0.0044,-0.0028,-0.0028,-0.0028,-0.0028,0,0.0223,0.0294,0.0371,0.0484,0.055,0.0582,0.0607,0.0564,0.0539,0.0566,0.0384,0.0326,0.0188,0.0089,0.0054,-0.0057,-0.0025,-0.0067,-0.0066,-0.0008,0.0068,0.0033,0.0039,-0.0027,-0.0027,-0.0027,-0.0027,0,0.022,0.0262,0.0367,0.0454,0.0525,0.0494,0.0514,0.0447,0.0421,0.0348,0.024,0.0154,0.0119,0.0065,-0.0053,-0.005,-0.0023,0.0003,0.0,-0.0001,0.0035,0.0136,0.003,0,0,0,0,0,0.021,0.0239,0.0316,0.0381,0.0441,0.0462,0.0444,0.0429,0.0378,0.0265,0.0282,0.0151,0.0082,-0.0008,0.0006,-0.0042,-0.0032,-0.0025,-0.0005,-0.0021,-0.0022,0.0019,0,0,0,0,0,0,0.0193,0.0266,0.0293,0.0307,0.0319,0.0328,0.0308,0.0265,0.0196,0.0175,0.0118,0.0171,0.0075,0.0081,0.0004,-0.0001,0.002,-0.0042,-0.0041,-0.002,-0.0021,-0.0022,0.0019,0,0,0,0,0]},{"header":{"parameterUnit":"m.s-1","parameterCategory":2,"la1":30.2991,"la2":30.254,"lo1":-89.0895,"lo2":-89.0444,"dy":0.0017,"dx":0.0017,"nx":28,"ny":28,"refTime":"2023-08-08T21:00:00:Z","depth":"4","parameterNumber":3,"parameterNumberName":"V-component_of_CURRENTS"},"data":[0,0,0,0,0,0,0,0,0,0,0,0,0,0,0,0,0,0,0,0,0,0,0,0,0,0,0,0,0,0,0,0,0,0,0,0,0,0,0,0,0,0,0,0,0,0,0,0,0,0,0,0,0,0,0,0,0,0,-0.0081,-0.0083,0,-0.0259,-0.0261,-0.0264,-0.0378,-0.0378,-0.0378,-0.0378,-0.0505,-0.0508,-0.0511,0,0,0,0,0,0,0,0,0,0,0,0,0,0.0046,0.0044,-0.0081,-0.0083,-0.0085,-0.0258,-0.0261,-0.0264,-0.0378,-0.0378,-0.0378,-0.0379,-0.0504,-0.0508,-0.0512,0,0,0,0,0,0,0,0,0,0,0,0,0,-0.0063,0.0044,-0.0081,-0.0158,-0.0167,-0.0258,-0.0262,-0.0265,-0.0378,-0.0378,-0.0378,-0.0379,-0.0503,-0.0507,-0.0512,-0.0535,0,0,-0.0527,-0.0529,0,0,0,0,0,0,0,0,-0.0057,-0.0068,-0.0145,-0.0153,-0.0162,-0.0292,-0.0263,-0.0351,-0.0378,-0.0303,-0.0378,-0.0379,-0.0425,-0.0436,-0.0478,-0.0541,-0.0547,-0.0527,-0.053,-0.0532,-0.0533,0,0,0,0,0,0,0,-0.0049,-0.0062,-0.0157,-0.0147,-0.0157,-0.0223,-0.0238,-0.0282,-0.0363,-0.031,-0.0317,-0.0328,-0.043,-0.0473,-0.0481,-0.0549,-0.0527,-0.0531,-0.0534,-0.0536,-0.0687,-0.0688,0,0,0,0,0,0,-0.001,-0.0054,-0.0151,-0.0162,-0.0103,-0.0224,-0.0242,-0.0254,-0.0364,-0.038,-0.0328,-0.0333,-0.0465,-0.0475,-0.0486,-0.0569,-0.0532,-0.0537,-0.0539,-0.0686,-0.0687,-0.0688,0,0,0,0,0,0,-0.0007,-0.0017,-0.0144,-0.0108,-0.0128,-0.0224,-0.0239,-0.0258,-0.0336,-0.0378,-0.0394,-0.039,-0.0465,-0.0479,-0.0565,-0.0573,-0.0539,-0.0543,-0.0684,-0.0686,-0.0688,-0.0703,0,0,0,0,0,0,-0.0002,-0.0015,-0.004,-0.0105,-0.0128,-0.0215,-0.0239,-0.0261,-0.0338,-0.0347,-0.0436,-0.0446,-0.0466,-0.0558,-0.057,-0.0578,-0.0547,-0.0683,-0.0685,-0.0687,-0.0701,-0.0705,-0.0709,0,0,0,0,0,0.0003,-0.0014,-0.004,-0.0053,-0.0149,-0.0216,-0.0236,-0.0309,-0.034,-0.0381,-0.0449,-0.0445,-0.0578,-0.0564,-0.0577,-0.0587,-0.0682,-0.0684,-0.0687,-0.07,-0.0705,-0.0709,0,0,0,0,0,0,0.002,-0.0029,-0.0058,-0.0093,-0.0158,-0.0233,-0.0282,-0.0329,-0.042,-0.0441,-0.0481,-0.0498,-0.057,-0.0583,-0.0566,-0.0636,-0.0621,-0.0626,-0.0626,-0.0631,-0.0634,-0.0625,-0.0551,0,0,0,0,0,0.0018,-0.0008,-0.0069,-0.0105,-0.0136,-0.0219,-0.0266,-0.0315,-0.0387,-0.0431,-0.0492,-0.0546,-0.0586,-0.0615,-0.0661,-0.0711,-0.0678,-0.0719,-0.0722,-0.0725,-0.0727,-0.068,-0.0678,-0.0697,-0.0697,-0.0697,0,0,0.0016,-0.0016,-0.0035,-0.0104,-0.0164,-0.0224,-0.0251,-0.0328,-0.0384,-0.0426,-0.0537,-0.0575,-0.0607,-0.0665,-0.0694,-0.0679,-0.0704,-0.0729,-0.0731,-0.0731,-0.0682,-0.068,-0.0678,-0.0698,-0.0698,-0.0698,0,0,0.0001,-0.0035,-0.0069,-0.0123,-0.0207,-0.0252,-0.0278,-0.0376,-0.0429,-0.0526,-0.0559,-0.0605,-0.0695,-0.0705,-0.0718,-0.0769,-0.0732,-0.0785,-0.079,-0.0745,-0.0742,-0.0739,-0.069,-0.0682,-0.0776,-0.0776,-0.0776,0,-0.0006,-0.0058,-0.0094,-0.0148,-0.0198,-0.0265,-0.0328,-0.0385,-0.0503,-0.0534,-0.0562,-0.0672,-0.0702,-0.0733,-0.0756,-0.0773,-0.0747,-0.0769,-0.0746,-0.0742,-0.0739,-0.0689,-0.0681,-0.0777,-0.0777,-0.0777,-0.0777,0,-0.0049,-0.0108,-0.0135,-0.0218,-0.0273,-0.0339,-0.0405,-0.0471,-0.0535,-0.0581,-0.0653,-0.07,-0.075,-0.0761,-0.0783,-0.0779,-0.0767,-0.076,-0.0726,-0.0738,-0.0685,-0.0676,-0.0779,-0.0779,-0.0778,-0.0778,0,0,-0.0024,-0.0141,-0.0157,-0.0215,-0.032,-0.0367,-0.0441,-0.0516,-0.0553,-0.0642,-0.068,-0.0749,-0.0766,-0.0783,-0.08,-0.0768,-0.0724,-0.0764,-0.0761,-0.0702,-0.0623,-0.0639,-0.063,-0.0714,-0.0713,-0.0712,-0.0592,0,-0.0061,-0.0159,-0.021,-0.0319,-0.0384,-0.0448,-0.0504,-0.0571,-0.0623,-0.0671,-0.0691,-0.0738,-0.0772,-0.0792,-0.0772,-0.0753,-0.0704,-0.0758,-0.0634,-0.063,-0.0631,-0.0622,-0.0708,-0.0585,-0.0583,-0.0582,-0.058,0,-0.0099,-0.0161,-0.0261,-0.0374,-0.0405,-0.046,-0.0543,-0.0602,-0.0648,-0.0684,-0.0718,-0.0745,-0.0751,-0.0756,-0.0705,-0.0744,-0.0687,-0.065,-0.0643,-0.0647,-0.063,-0.0575,-0.0563,-0.0565,-0.0566,-0.0567,-0.0568,0,-0.0075,-0.0202,-0.0279,-0.0323,-0.0444,-0.0482,-0.0536,-0.0598,-0.0628,-0.0674,-0.0684,-0.0717,-0.071,-0.0676,-0.0631,-0.0669,-0.0532,-0.0561,-0.0507,-0.0506,-0.0518,-0.0522,-0.0473,-0.0473,-0.0473,-0.0474,-0.0474,0,-0.01,-0.0169,-0.0268,-0.0315,-0.0382,-0.0466,-0.0518,-0.057,-0.0608,-0.0611,-0.0678,-0.0662,-0.0687,-0.0629,-0.06,-0.0527,-0.0497,-0.0504,-0.0477,-0.0529,-0.0536,-0.051,-0.0516,-0.0469,-0.047,-0.0471,-0.0472,0,-0.0088,-0.0156,-0.0246,-0.0354,-0.0378,-0.0423,-0.0493,-0.0519,-0.0561,-0.0557,-0.0566,-0.0598,-0.0563,-0.0549,-0.0465,-0.0467,-0.0398,-0.0352,-0.0388,-0.0366,-0.0417,-0.0425,-0.033,-0.033,-0.0329,-0.0329,-0.0329,0,-0.0103,-0.0144,-0.0247,-0.0278,-0.0328,-0.0389,-0.0418,-0.0483,-0.0483,-0.0497,-0.0469,-0.0462,-0.0477,-0.0383,-0.0378,-0.0327,-0.0316,-0.0279,-0.0394,-0.0419,-0.0402,-0.0411,-0.042,-0.0328,-0.0328,-0.0328,-0.0328,0,-0.0124,-0.0151,-0.0214,-0.0256,-0.0295,-0.0345,-0.0373,-0.0359,-0.0401,-0.0424,-0.0401,-0.0415,-0.0365,-0.0374,-0.032,-0.0277,-0.0332,-0.0276,-0.0279,-0.0387,-0.0415,-0.0401,-0.041,-0.0327,-0.0327,-0.0327,-0.0327,0,-0.0129,-0.016,-0.0212,-0.025,-0.0284,-0.03,-0.0323,-0.0328,-0.0341,-0.0348,-0.0313,-0.0325,-0.0333,-0.0335,-0.0269,-0.0268,-0.0307,-0.0326,-0.0327,-0.0328,-0.0392,-0.0432,-0.0316,0,0,0,0,0,-0.0132,-0.016,-0.0201,-0.0248,-0.027,-0.0296,-0.0296,-0.0308,-0.0298,-0.0286,-0.0316,-0.0284,-0.0294,-0.0286,-0.0292,-0.0268,-0.0289,-0.0274,-0.0307,-0.032,-0.0322,-0.0403,0,0,0,0,0,0,-0.0146,-0.0176,-0.0201,-0.0226,-0.0253,-0.0283,-0.029,-0.029,-0.028,-0.0276,-0.0277,-0.0302,-0.0298,-0.0303,-0.0302,-0.03,-0.0325,-0.028,-0.028,-0.032,-0.0321,-0.0322,-0.0406,0,0,0,0,0]}]]